Погода в Такуарембо

Уругвай     31°42′22″S   55°58′47″W
темп.,
°C
ветер,
м/с
пор.,
м/с
влажн.,
%
обл.,
%
осадки,
мм/ч
давл.,
гПа
погр.,
м
13 апреля, вт
вт1300:00+12юв11860 0.0 102210
03:00+11юв11880 0.0 102110
06:00+10вюв11900 0.0 102210
09:00+15вюв23750 0.0 1023219
12:00+22в33440 0.0 1022986
15:00+24вюв33360 0.0 10191400
18:00+19вюв35590 0.0 101979
21:00+14вюв35820 0.0 102069
14 апреля, ср
ср1400:00+12вюв23880 0.0 102048
03:00+11вюв22920 0.0 101921
06:00+11вюв22963 0.0 101938
09:00+16всв48820 0.0 1019334
12:00+23всв56490 0.0 1017953
15:00+26всв45430 0.0 10141401
18:00+22вюв476490 0.1 1014155
21:00+19вюв3774100 0.1 1015159
15 апреля, чт
чт1500:00+17вюв258388 0.1 1015105
03:00+16всв229067 0.5 101515
06:00+17св258862 0.1 1015154
09:00+19ссв347872 0.1 1016217
12:00+25ссв335742 0.0 1015688
15:00+28ссв2251100 0.0 10131474
18:00+23ююз1172100 0.6 101212
21:00+20ююз118532 1.3 101411
16 апреля, пт
пт1600:00+18в129279 0.4 101421
03:00+17сз1195100 2.3 101311
06:00+17сз1194100 0.0 101412
09:00+20зюз1188100 0.0 1016168
12:00+25ююв226843 0.0 1015910
15:00+25юв337117 1.6 1014884
18:00+21вюв34886 0.8 101487
21:00+19юв229276 0.8 101528
17 апреля, сб
сб1700:00+20вюв2794100 0.1 1016226
03:00+17вюв2597100 0.1 1016135
06:00+16юв249958 0.0 1017117
09:00+18вюв469472 0.0 1018335
12:00+20вюв4581100 0.0 1019667
15:00+21вюв4675100 0.0 1017868
18:00+22в477061 0.0 1017643
21:00+17юв23920 0.0 101858